User: anonymous   Login
Location: Bittelbronn
(48.4454°N, 8.5870°E)
Time: 05:41:15
(UTC+00:00)
Language:

Cosmos 1703 - Orbit

View from above orbital plane
View from above orbital plane
View from above satellite
View from above satellite

Ground track
Ground track

The orbit data is extracted from the following two-line orbital elements,

1 16262U 85108A   24205.38096656  .00014894  00000-0  59138-3 0  9990
2 16262  82.4680 211.1135 0006668 339.9984  20.0991 15.25202354110712
Epoch (UTC): 23 July 2024 09:08:35
Eccentricity: 0.0006668
inclination: 82.4680°
perigee height: 485 km
apogee height: 495 km
right ascension of ascending node: 211.1135°
argument of perigee: 339.9984°
revolutions per day: 15.25202354
mean anomaly at epoch: 20.0991°
orbit number at epoch: 11071

The dashed part of the orbit path shows where the satellite is in the earth's shadow,  

DLR